Tracking 29892 objects as of 21-Nov-2024
HD Live streaming from Space Station
objects crossing your sky now

SKYKRAFT-1A

Track SKYKRAFT-1A now!
10-day predictions


NORAD ID: 55054
Int'l Code: 2023-001AX
Perigee: 500.9 km
Apogee: 516.6 km
Inclination: 97.4 °
Period: 94.6 minutes
Semi major axis: 6879 km
RCS: Unknown
Launch date: January 3, 2023
Source: Australia (AUS)
Launch site: AIR FORCE EASTERN TEST RANGE (AFETR)
Your satellite tracking list
Your tracking list is empty




NASA's NSSDC Master Catalog

Two Line Element Set (TLE):
1 55054U 23001AX  24325.87376548  .00007225  00000-0  32442-3 0  9993
2 55054  97.4058  21.1324 0011447   1.4747 358.6520 15.21408860104310
Source of the keplerian elements: AFSPC